Location: Fernhill
(41.0167°S, 175.6333°E)
Time: 10:26:35
(UTC+00:00)

Spot 2 Rocket - Pass Details

Date: 08 November 2025
Orbit: 751 x 767 km, 98.3° (Epoch: 11 December)

Event Time Altitude Azimuth Distance (km) Brightness Sun altitude
Rises 09:29:54 0° 158° (SSE) 3,256 7.1 -22.5°
Reaches altitude 10° 09:32:26 10° 148° (SSE) 2,325 6.2 -22.8°
Enters shadow 09:36:15 32° 103° (ESE) 1,300 4.4 -23.2°
